| time (UTC) | temp F | wind direction | speed MPH | gust MPH | rain 1hr in | rain 24hr in | rain mn in | humidity % | barometer mb |
| 20260509185329 | 74 | 341 | 2.0 | 8.0 | 0.00 | 0.00 | 0.00 | 58 | 1009.1 |
| 20260509184321 | 75 | 341 | 5.0 | 14.0 | 0.00 | 0.00 | 0.00 | 55 | 1009.3 |
| 20260509183336 | 75 | 341 | 5.0 | 15.0 | 0.00 | 0.00 | 0.00 | 58 | 1009.4 |
| 20260509182329 | 74 | 341 | 4.0 | 10.0 | 0.00 | 0.00 | 0.00 | 60 | 1009.6 |
| 20260509181345 | 73 | 341 | 5.0 | 11.0 | 0.00 | 0.00 | 0.00 | 59 | 1009.7 |
| 20260509180316 | 75 | 341 | 4.0 | 17.0 | 0.00 | 0.00 | 0.00 | 57 | 1009.7 |
| 20260509175332 | 75 | 341 | 4.0 | 12.0 | 0.00 | 0.00 | 0.00 | 59 | 1009.6 |
| 20260509174323 | 74 | 341 | 6.0 | 12.0 | 0.00 | 0.00 | 0.00 | 59 | 1009.9 |
| 20260509173314 | 72 | 341 | 3.0 | 13.0 | 0.00 | 0.00 | 0.00 | 62 | 1009.9 |
| 20260509172321 | 72 | 341 | 2.0 | 13.0 | 0.00 | 0.00 | 0.00 | 62 | 1010.1 |
| 20260509171312 | 72 | 341 | 5.0 | 9.0 | 0.00 | 0.00 | 0.00 | 60 | 1010.1 |
| 20260509170329 | 72 | 341 | 4.0 | 16.0 | 0.00 | 0.00 | 0.00 | 59 | 1010.1 |
| 20260509165320 | 73 | 341 | 3.0 | 11.0 | 0.00 | 0.00 | 0.00 | 60 | 1010.3 |
| 20260509164336 | 72 | 341 | 6.0 | 12.0 | 0.00 | 0.00 | 0.00 | 63 | 1010.4 |
| 20260509163333 | 71 | 341 | 5.0 | 10.0 | 0.00 | 0.00 | 0.00 | 64 | 1010.7 |
| 20260509162329 | 72 | 341 | 6.0 | 10.0 | 0.00 | 0.00 | 0.00 | 64 | 1010.8 |
| 20260509161314 | 72 | 341 | 4.0 | 15.0 | 0.00 | 0.00 | 0.00 | 65 | 1010.9 |
| 20260509160330 | 70 | 341 | 4.0 | 12.0 | 0.00 | 0.00 | 0.00 | 68 | 1010.8 |
| 20260509155320 | 69 | 341 | 4.0 | 8.0 | 0.00 | 0.00 | 0.00 | 69 | 1011.0 |
| 20260509154315 | 70 | 341 | 4.0 | 12.0 | 0.00 | 0.00 | 0.00 | 68 | 1011.1 |
| 20260509153331 | 70 | 341 | 4.0 | 8.0 | 0.00 | 0.00 | 0.00 | 68 | 1011.2 |
| 20260509152322 | 69 | 341 | 4.0 | 9.0 | 0.00 | 0.00 | 0.00 | 71 | 1011.5 |
| 20260509151357 | 68 | 341 | 3.0 | 13.0 | 0.00 | 0.00 | 0.00 | 73 | 1011.6 |
| 20260509150328 | 67 | 341 | 2.0 | 10.0 | 0.00 | 0.00 | 0.00 | 74 | 1011.6 |
| 20260509145320 | 66 | 341 | 2.0 | 7.0 | 0.00 | 0.00 | 0.00 | 75 | 1011.6 |
| 20260509144336 | 64 | 341 | 0.0 | 8.0 | 0.00 | 0.00 | 0.00 | 78 | 1011.8 |
| 20260509143326 | 63 | 341 | 1.0 | 6.0 | 0.00 | 0.00 | 0.00 | 79 | 1011.9 |
| 20260509142317 | 63 | 341 | 1.0 | 4.0 | 0.00 | 0.00 | 0.00 | 79 | 1012.1 |
| 20260509141335 | 62 | 341 | 2.0 | 6.0 | 0.00 | 0.00 | 0.00 | 79 | 1012.2 |
| 20260509140353 | 61 | 341 | 1.0 | 5.0 | 0.00 | 0.00 | 0.00 | 82 | 1012.3 |
| 20260509135320 | 60 | 341 | 1.0 | 6.0 | 0.00 | 0.00 | 0.00 | 81 | 1012.5 |
| 20260509134312 | 60 | 341 | 1.0 | 9.0 | 0.00 | 0.00 | 0.00 | 82 | 1012.5 |
| 20260509133329 | 59 | 341 | 1.0 | 4.0 | 0.00 | 0.00 | 0.00 | 84 | 1012.7 |
| 20260509132320 | 58 | 341 | 2.0 | 9.0 | 0.00 | 0.00 | 0.00 | 85 | 1012.7 |
| 20260509131338 | 58 | 341 | 3.0 | 7.0 | 0.00 | 0.00 | 0.00 | 85 | 1012.8 |
| 20260509130325 | 58 | 341 | 2.0 | 7.0 | 0.00 | 0.00 | 0.00 | 85 | 1012.9 |
| 20260509125313 | 57 | 341 | 2.0 | 4.0 | 0.00 | 0.00 | 0.00 | 86 | 1012.8 |
| 20260509124321 | 57 | 341 | 2.0 | 8.0 | 0.00 | 0.00 | 0.00 | 87 | 1012.8 |
| 20260509123336 | 57 | 341 | 2.0 | 4.0 | 0.00 | 0.00 | 0.00 | 87 | 1012.8 |
| 20260509122327 | 56 | 341 | 1.0 | 4.0 | 0.00 | 0.00 | 0.00 | 88 | 1012.7 |
| 20260509121334 | 56 | 341 | 1.0 | 7.0 | 0.00 | 0.00 | 0.00 | 89 | 1012.6 |
| 20260509120324 | 55 | 341 | 2.0 | 7.0 | 0.00 | 0.00 | 0.00 | 89 | 1012.7 |
| 20260509115314 | 55 | 341 | 1.0 | 3.0 | 0.00 | 0.00 | 0.00 | 89 | 1012.9 |
| 20260509114330 | 54 | 341 | 1.0 | 7.0 | 0.00 | 0.00 | 0.00 | 90 | 1013.0 |
| 20260509113322 | 54 | 341 | 1.0 | 4.0 | 0.00 | 0.00 | 0.00 | 90 | 1012.8 |
| 20260509112337 | 53 | 341 | 0.0 | 4.0 | 0.00 | 0.00 | 0.00 | 91 | 1012.6 |
| 20260509111326 | 53 | 341 | 0.0 | 3.0 | 0.00 | 0.00 | 0.00 | 91 | 1012.3 |
| 20260509110320 | 52 | 341 | 0.0 | 2.0 | 0.00 | 0.00 | 0.00 | 91 | 1012.3 |
| 20260509105335 | 52 | 341 | 0.0 | 3.0 | 0.00 | 0.00 | 0.00 | 91 | 1012.2 |
| 20260509104323 | 52 | 341 | 0.0 | 5.0 | 0.00 | 0.00 | 0.00 | 90 | 1012.2 |
| 20260509103312 | 52 | 341 | 1.0 | 4.0 | 0.00 | 0.00 | 0.00 | 90 | 1012.3 |
| 20260509102328 | 52 | 341 | 1.0 | 7.0 | 0.00 | 0.00 | 0.00 | 90 | 1012.2 |
| 20260509101337 | 52 | 341 | 1.0 | 4.0 | 0.00 | 0.00 | 0.00 | 90 | 1012.2 |
| 20260509100325 | 52 | 341 | 1.0 | 5.0 | 0.00 | 0.00 | 0.00 | 90 | 1012.2 |
| 20260509095342 | 52 | 341 | 1.0 | 4.0 | 0.00 | 0.00 | 0.00 | 89 | 1012.1 |
| 20260509094337 | 52 | 341 | 1.0 | 7.0 | 0.00 | 0.00 | 0.00 | 89 | 1012.1 |
| 20260509093323 | 52 | 341 | 0.0 | 3.0 | 0.00 | 0.00 | 0.00 | 88 | 1012.3 |
| 20260509092337 | 52 | 341 | 1.0 | 3.0 | 0.00 | 0.00 | 0.00 | 88 | 1012.4 |
| 20260509091327 | 52 | 341 | 2.0 | 7.0 | 0.00 | 0.00 | 0.00 | 88 | 1012.4 |
| 20260509090316 | 52 | 341 | 1.0 | 5.0 | 0.00 | 0.00 | 0.00 | 87 | 1012.5 |
| 20260509085334 | 52 | 341 | 1.0 | 3.0 | 0.00 | 0.00 | 0.00 | 87 | 1012.4 |
| 20260509084322 | 52 | 341 | 1.0 | 4.0 | 0.00 | 0.00 | 0.00 | 87 | 1012.3 |
| 20260509083338 | 52 | 341 | 1.0 | 5.0 | 0.00 | 0.00 | 0.00 | 87 | 1012.3 |
| 20260509082328 | 51 | 341 | 0.0 | 3.0 | 0.00 | 0.00 | 0.00 | 87 | 1012.4 |
| 20260509081316 | 50 | 341 | 0.0 | 1.0 | 0.00 | 0.00 | 0.00 | 86 | 1012.4 |
| 20260509080326 | 50 | 341 | 0.0 | 1.0 | 0.00 | 0.00 | 0.00 | 85 | 1012.5 |
| 20260509075314 | 50 | 341 | 0.0 | 1.0 | 0.00 | 0.00 | 0.00 | 84 | 1012.5 |
| 20260509074330 | 51 | 341 | 0.0 | 2.0 | 0.00 | 0.00 | 0.00 | 84 | 1012.5 |
| 20260509073321 | 50 | 341 | 0.0 | 2.0 | 0.00 | 0.01 | 0.00 | 84 | 1012.4 |
| 20260509072358 | 50 | 341 | 0.0 | 1.0 | 0.00 | 0.01 | 0.00 | 83 | 1012.5 |
| 20260509071326 | 50 | 341 | 0.0 | 2.0 | 0.00 | 0.01 | 0.00 | 81 | 1012.5 |
| 20260509070316 | 51 | 341 | 0.0 | 1.0 | 0.00 | 0.01 | 0.00 | 80 | 1012.8 |
| 20260509065332 | 51 | 341 | 0.0 | 1.0 | 0.00 | 0.01 | 0.00 | 79 | 1012.9 |
| 20260509064326 | 52 | 341 | 0.0 | 1.0 | 0.00 | 0.01 | 0.00 | 77 | 1013.0 |
| 20260509063317 | 52 | 341 | 0.0 | 1.0 | 0.00 | 0.01 | 0.00 | 76 | 1013.3 |
| 20260509062331 | 53 | 341 | 0.0 | 1.0 | 0.00 | 0.01 | 0.00 | 75 | 1013.4 |
| 20260509061321 | 54 | 341 | 1.0 | 2.0 | 0.00 | 0.01 | 0.00 | 73 | 1013.6 |
| 20260509060338 | 54 | 341 | 1.0 | 3.0 | 0.00 | 0.01 | 0.00 | 74 | 1013.5 |
| 20260509055326 | 54 | 341 | 0.0 | 1.0 | 0.00 | 0.01 | 0.00 | 73 | 1013.7 |
| 20260509054313 | 54 | 341 | 0.0 | 2.0 | 0.00 | 0.01 | 0.00 | 72 | 1013.7 |
| 20260509053350 | 54 | 341 | 1.0 | 3.0 | 0.00 | 0.01 | 0.01 | 71 | 1013.7 |
| 20260509052347 | 54 | 341 | 0.0 | 3.0 | 0.00 | 0.01 | 0.01 | 70 | 1013.5 |
| 20260509051316 | 54 | 341 | 0.0 | 4.0 | 0.00 | 0.01 | 0.01 | 70 | 1013.6 |
| 20260509050333 | 55 | 341 | 0.0 | 2.0 | 0.00 | 0.01 | 0.01 | 70 | 1013.5 |
| 20260509045349 | 55 | 341 | 0.0 | 2.0 | 0.00 | 0.01 | 0.01 | 69 | 1013.5 |
| 20260509044318 | 55 | 341 | 0.0 | 2.0 | 0.00 | 0.01 | 0.01 | 68 | 1013.2 |
| 20260509043324 | 55 | 341 | 1.0 | 4.0 | 0.00 | 0.01 | 0.01 | 67 | 1013.5 |
| 20260509042333 | 55 | 341 | 1.0 | 3.0 | 0.00 | 0.01 | 0.01 | 66 | 1013.5 |
| 20260509041321 | 55 | 341 | 0.0 | 3.0 | 0.00 | 0.01 | 0.01 | 66 | 1013.4 |
| 20260509040337 | 56 | 341 | 0.0 | 3.0 | 0.00 | 0.01 | 0.01 | 64 | 1013.3 |
| 20260509035327 | 57 | 341 | 0.0 | 5.0 | 0.00 | 0.01 | 0.01 | 63 | 1013.4 |
| 20260509034342 | 57 | 341 | 1.0 | 4.0 | 0.00 | 0.01 | 0.01 | 63 | 1013.7 |
| 20260509033311 | 56 | 341 | 1.0 | 4.0 | 0.00 | 0.01 | 0.01 | 64 | 1013.7 |
| 20260509032326 | 56 | 341 | 1.0 | 2.0 | 0.00 | 0.01 | 0.01 | 63 | 1013.7 |
| 20260509031316 | 56 | 341 | 0.0 | 3.0 | 0.00 | 0.01 | 0.01 | 65 | 1013.8 |
| 20260509030333 | 55 | 341 | 0.0 | 1.0 | 0.00 | 0.01 | 0.01 | 65 | 1014.1 |
| 20260509025327 | 55 | 341 | 0.0 | 1.0 | 0.00 | 0.01 | 0.01 | 64 | 1014.2 |
| 20260509024317 | 55 | 341 | 0.0 | 1.0 | 0.00 | 0.01 | 0.01 | 65 | 1014.2 |
| 20260509023352 | 56 | 341 | 0.0 | 1.0 | 0.00 | 0.01 | 0.01 | 63 | 1014.1 |
| 20260509022322 | 57 | 341 | 0.0 | 1.0 | 0.00 | 0.01 | 0.01 | 59 | 1014.2 |
| 20260509021332 | 57 | 341 | 0.0 | 1.0 | 0.00 | 0.01 | 0.01 | 58 | 1014.2 |
| 20260509020321 | 57 | 341 | 0.0 | 2.0 | 0.00 | 0.01 | 0.01 | 58 | 1014.2 |
| 20260509015329 | 57 | 341 | 0.0 | 0.0 | 0.00 | 0.01 | 0.01 | 59 | 1014.2 |
| 20260509014345 | 58 | 341 | 0.0 | 3.0 | 0.00 | 0.01 | 0.01 | 57 | 1014.0 |
| 20260509013313 | 56 | 341 | 0.0 | 1.0 | 0.00 | 0.01 | 0.01 | 61 | 1014.1 |
| 20260509012330 | 56 | 341 | 0.0 | 1.0 | 0.00 | 0.01 | 0.01 | 63 | 1013.9 |
| 20260509011322 | 57 | 341 | 0.0 | 0.0 | 0.00 | 0.01 | 0.01 | 62 | 1013.7 |
| 20260509010338 | 58 | 341 | 0.0 | 0.0 | 0.00 | 0.01 | 0.01 | 59 | 1013.6 |
| 20260509005328 | 59 | 341 | 0.0 | 1.0 | 0.00 | 0.01 | 0.01 | 56 | 1013.5 |
| 20260509004322 | 59 | 341 | 0.0 | 0.0 | 0.00 | 0.01 | 0.01 | 55 | 1013.5 |
| 20260509003340 | 61 | 341 | 0.0 | 1.0 | 0.00 | 0.01 | 0.01 | 55 | 1013.7 |
| 20260509002352 | 62 | 341 | 0.0 | 1.0 | 0.00 | 0.01 | 0.01 | 49 | 1013.5 |
| 20260509001327 | 64 | 341 | 0.0 | 1.0 | 0.00 | 0.01 | 0.01 | 48 | 1013.5 |
| 20260509000344 | 66 | 341 | 0.0 | 1.0 | 0.00 | 0.01 | 0.01 | 44 | 1013.4 |
| 20260508235311 | 68 | 341 | 0.0 | 1.0 | 0.00 | 0.01 | 0.01 | 42 | 1013.2 |
| 20260508234326 | 70 | 341 | 0.0 | 2.0 | 0.00 | 0.01 | 0.01 | 39 | 1013.1 |
| 20260508233317 | 72 | 341 | 0.0 | 3.0 | 0.00 | 0.01 | 0.01 | 38 | 1013.1 |
| 20260508232334 | 72 | 341 | 0.0 | 3.0 | 0.00 | 0.01 | 0.01 | 38 | 1013.1 |
| 20260508231348 | 71 | 341 | 0.0 | 4.0 | 0.00 | 0.01 | 0.01 | 39 | 1012.9 |
| 20260508230341 | 71 | 341 | 1.0 | 5.0 | 0.00 | 0.01 | 0.01 | 39 | 1012.7 |
| 20260508225355 | 71 | 341 | 1.0 | 5.0 | 0.00 | 0.01 | 0.01 | 37 | 1012.8 |
| 20260508224324 | 71 | 341 | 1.0 | 8.0 | 0.00 | 0.01 | 0.01 | 37 | 1012.8 |
| 20260508223317 | 71 | 341 | 3.0 | 12.0 | 0.00 | 0.01 | 0.01 | 35 | 1012.8 |
| 20260508222334 | 72 | 341 | 2.0 | 8.0 | 0.00 | 0.01 | 0.01 | 36 | 1013.0 |
| 20260508221324 | 72 | 341 | 2.0 | 8.0 | 0.00 | 0.01 | 0.01 | 36 | 1012.9 |
| 20260508220314 | 72 | 341 | 2.0 | 11.0 | 0.00 | 0.01 | 0.01 | 36 | 1012.9 |
| 20260508215328 | 72 | 341 | 4.0 | 11.0 | 0.00 | 0.01 | 0.01 | 35 | 1013.0 |
| 20260508214333 | 72 | 341 | 6.0 | 14.0 | 0.00 | 0.01 | 0.01 | 36 | 1013.0 |
| 20260508213323 | 72 | 341 | 4.0 | 9.0 | 0.00 | 0.07 | 0.01 | 35 | 1013.3 |
| 20260508212312 | 72 | 341 | 4.0 | 9.0 | 0.00 | 0.07 | 0.01 | 36 | 1013.3 |
| 20260508211327 | 71 | 341 | 4.0 | 12.0 | 0.00 | 0.07 | 0.01 | 36 | 1013.3 |
| 20260508210315 | 72 | 341 | 3.0 | 13.0 | 0.00 | 0.07 | 0.01 | 37 | 1013.2 |
| 20260508205329 | 72 | 341 | 3.0 | 10.0 | 0.00 | 0.07 | 0.01 | 37 | 1013.2 |
| 20260508204320 | 72 | 341 | 2.0 | 8.0 | 0.00 | 0.07 | 0.01 | 38 | 1013.3 |
| 20260508203328 | 71 | 341 | 3.0 | 12.0 | 0.00 | 0.08 | 0.01 | 36 | 1013.4 |
| 20260508202334 | 72 | 341 | 4.0 | 8.0 | 0.00 | 0.08 | 0.01 | 37 | 1013.5 |
| 20260508201324 | 71 | 341 | 4.0 | 8.0 | 0.00 | 0.08 | 0.01 | 37 | 1013.7 |
| 20260508200317 | 72 | 341 | 3.0 | 7.0 | 0.00 | 0.08 | 0.01 | 38 | 1013.7 |
| 20260508195334 | 71 | 341 | 3.0 | 10.0 | 0.00 | 0.08 | 0.01 | 38 | 1013.7 |
| 20260508194323 | 71 | 341 | 2.0 | 9.0 | 0.00 | 0.08 | 0.01 | 37 | 1013.8 |
| 20260508193312 | 71 | 341 | 4.0 | 8.0 | 0.00 | 0.10 | 0.01 | 38 | 1013.7 |
| 20260508192329 | 71 | 341 | 2.0 | 10.0 | 0.00 | 0.10 | 0.01 | 36 | 1014.0 |
| 20260508191321 | 71 | 341 | 2.0 | 10.0 | 0.00 | 0.10 | 0.01 | 40 | 1014.0 |
| 20260508190336 | 71 | 341 | 5.0 | 9.0 | 0.00 | 0.10 | 0.01 | 39 | 1014.2 |